This is the latest recevied weather packets stored in our database for station/object KR4ELZ. If no packets are shown the sender has not sent any weather packets the latest 10 day(s).
| Time | Temp. | Humidity | Pressure | Rain* | Wind** | Luminosity | Snow |
|---|---|---|---|---|---|---|---|
| 1777737490 | 18.89° C | 44% | 1018.1 hPa | 0 mm | - | 598 W/m² | - |
| 1777736883 | 17.78° C | 45% | 1018.3 hPa | 0 mm | - | 584 W/m² | - |
| 1777736270 | 17.78° C | 45% | 1018.2 hPa | 0 mm | - | 566 W/m² | - |
| 1777735966 | 18.33° C | 45% | 1018.4 hPa | 0 mm | - | 555 W/m² | - |
| 1777735664 | 17.78° C | 47% | 1018.2 hPa | 0 mm | - | 549 W/m² | - |
| 1777735361 | 16.67° C | 53% | 1018.3 hPa | 0 mm | - | 538 W/m² | - |
| 1777735058 | 18.33° C | 50% | 1017.9 hPa | 0 mm | - | 529 W/m² | - |
| 1777734755 | 17.22° C | 44% | 1018.1 hPa | 0 mm | - | 519 W/m² | - |
| 1777734453 | 17.78° C | 45% | 1018.1 hPa | 0 mm | - | 509 W/m² | - |
| 1777734150 | 17.22° C | 49% | 1018.1 hPa | 0 mm | - | 497 W/m² | - |
| 1777733846 | 18.89° C | 44% | 1018.1 hPa | 0 mm | - | 485 W/m² | - |
| 1777733239 | 16.67° C | 40% | 1017.9 hPa | 0 mm | - | 463 W/m² | - |
| 1777732632 | 16.67° C | 51% | 1017.9 hPa | 0 mm | - | 438 W/m² | - |
| 1777732330 | 16.67° C | 50% | 1017.9 hPa | 0 mm | - | 424 W/m² | - |
| 1777732027 | 16.11° C | 50% | 1017.9 hPa | 0 mm | - | 412 W/m² | - |
| 1777731723 | 16.67° C | 49% | 1017.7 hPa | 0 mm | - | 398 W/m² | - |
| 1777731420 | 16.67° C | 54% | 1017.6 hPa | 0 mm | - | 389 W/m² | - |
| 1777731119 | 16.11° C | 52% | 1017.7 hPa | 0 mm | - | 373 W/m² | - |
| 1777730817 | 16.67° C | 50% | 1017.7 hPa | 0 mm | - | 361 W/m² | - |
| 1777730513 | 16.67° C | 52% | 1017.6 hPa | 0 mm | - | 345 W/m² | - |
| 1777730209 | 16.11° C | 53% | 1017.5 hPa | 0 mm | - | 332 W/m² | - |
| 1777729906 | 16.11° C | 54% | 1017.6 hPa | 0 mm | - | 317 W/m² | - |
| 1777729299 | 15° C | 55% | 1017.5 hPa | 0 mm | - | 288 W/m² | - |
| 1777728996 | 13.89° C | 60% | 1017.5 hPa | 0 mm | - | 258 W/m² | - |
| 1777728693 | 14.44° C | 60% | 1017.5 hPa | 0 mm | - | 42 W/m² | - |
* Rain latest hour (hover to see other rain measurements)
** Current wind speed in m/s (hover to see current wind gust speed)